Flag for U.S.A. Weather past 2 weeks in Casper, Wyoming, U.S.A.

Now
53 °F

Clear.


Feels Like: 51 °F
Forecast: 54 / 89 °F
Wind: 6 mph from Northwest

Location: Natrona County International Airport

Current Time: Jul 28, 2014 at 3:48:35 AM

Latest Report: Jul 28, 2014 at 2:53 AM


Visibility: 10 mi

Pressure: 30.17 "Hg

Humidity: 69%

Dew point: 43 °F

Location of CasperLocation

Historic Weather in Casper — Graph

°F

Casper temperature yesterday

Maximum temperature yesterday: 86 °F (at 3:53 PM)
Minimum temperature yesterday: 47 °F (at 5:53 AM)
Average temperature yesterday: 69 °F

Past Weeks' High & Low Weather Summary

 TemperatureHumidityPressure
High96 °F (Jul 23, 1:53 PM)97% (Jul 16, 3:53 AM)30.22 "Hg (Jul 16, 3:53 AM)
Low47 °F (Jul 27, 5:53 AM)8% (Jul 19, 3:53 PM)29.65 "Hg (Jul 24, 7:53 PM)
Average72 °F42%29.92 "Hg
* Reported Jul 13 2:53 AM — Jul 28 2:53 AM, Casper, Weather by CustomWeather, © 2014

Note: Actual official high and low records may vary slightly from our data, if they occured in-between our weather recording intervals... More about our weather records

Advertising

Casper weather history for previous 24 hours

 ConditionsComfort  
Time TempWeatherWind HumidityBarometerVisibility
2:53 AM
Jul 28
53 °FClear.6 mph69%30.17 "Hg10 mi
1:53 AM56 °FClear.7 mph65%30.16 "Hg10 mi
12:53 AM65 °FClear.3 mph51%30.13 "Hg10 mi
11:53 PM
Jul 27
61 °FClear.3 mph56%30.14 "Hg10 mi
10:53 PM69 °FClear.10 mph42%30.13 "Hg10 mi
9:53 PM71 °FClear.6 mph38%30.13 "Hg10 mi
8:53 PM76 °FSunny.8 mph31%30.11 "Hg10 mi
7:53 PM80 °FSunny.10 mph25%30.10 "Hg10 mi
6:53 PM84 °FSunny.12 mph19%30.11 "Hg10 mi
5:53 PM86 °FSunny.8 mph17%30.12 "Hg10 mi
4:53 PM86 °FSunny.9 mph18%30.12 "Hg10 mi
3:53 PM86 °FSunny.10 mph20%30.13 "Hg10 mi
2:53 PM85 °FSunny.9 mph22%30.15 "Hg10 mi
1:53 PM82 °FSunny.10 mph26%30.16 "Hg10 mi
12:53 PM81 °FSunny.13 mph29%30.17 "Hg10 mi
11:53 AM77 °FSunny.9 mph31%30.19 "Hg10 mi
10:53 AM73 °FSunny.7 mph34%30.21 "Hg10 mi
9:53 AM68 °FSunny.5 mph36%30.22 "Hg10 mi
8:53 AM65 °FSunny.No wind39%30.22 "Hg10 mi
7:53 AM62 °FSunny.3 mph41%30.21 "Hg10 mi
6:53 AM52 °FSunny.No wind61%30.20 "Hg10 mi
5:53 AM47 °FClear.8 mph69%30.19 "Hg10 mi
4:53 AM49 °FClear.10 mph64%30.17 "Hg10 mi
3:53 AM52 °FClear.7 mph55%30.16 "Hg10 mi
Weather by CustomWeather, © 2014

See weather overviewHow to use our weather pages